Location: ???????
(38.3360°N, 23.6977°E)
Time: 21:43:15
(UTC+00:00)

Cosmos 1634 Rocket - Pass Details

Date: 17 November 2025
Orbit: 958 x 992 km, 82.9° (Epoch: 11 December)

Event Time Altitude Azimuth Distance (km) Brightness Sun altitude
Rises 17:13:41 0° 175° (S) 3,683 7.0 -24.0°
Reaches altitude 10° 17:16:14 10° 172° (S) 2,734 6.3 -24.5°
Maximum altitude 17:22:24 62° 93° (E) 1,094 3.9 -25.7°
Enters shadow 17:22:52 60° 71° (ENE) 1,111 3.9 -25.7°
